Location: Newark
(47.3000°N, 8.0500°E)
Time: 23:15:04
(UTC+00:00)

OTV 5 (USA 277) - Pass Details

Date: 31 August 2019
Orbit: 295 x 339 km, 54.5° (Epoch: 08 September)

Event Time Altitude Azimuth Distance (km) Brightness Sun altitude
Rises 21:10:56 0° 303° (WNW) 1,995 ? -26.5°
Reaches altitude 10° 21:13:11 10° 321° (NW) 1,167 ? -26.7°
Enters shadow 21:13:11 10° 321° (NW) 1,165 ? -26.7°
